SCP
0 0 0 0 0 0 0 0 0 0 0 0 0 0 0 -0 -0 -0 -0 0 -0 -0 -0 -0 -0 0 0 -0 -0 0 0 0 0 0 -0 0 0 0 0 0 0 0 0 0
0 0 0 0 0 0 0 0 0 0 0 0 0 0 0 0 -0 -0 -0 0 0 -0 -0 0 0 0 0 0 -0 0 0 0 0 0 0 0 0 0 0 0 0 0 0 0
0 0 0 0 0 0 0 0 0 0 0 0 0 0 0 0 0 -0 -0 -0 -0 -0 -0 -0 0 0 -0 -0 -0 0 0 0 0 0 0 0 0 0 0 0 0 0 0 0
0 0 0 0 0 0 0 0 0 0 0 0 0 0 0 0 0 0 -0 -0 -0 -0 -0 -0 -0 -0 0 0 -0 0 0 0 0 -0 0 0 0 0 0 0 0 0 0 0
0 0 0 0 0 0 0 0 0 0 0 0 0 0 0 0 0 0 -0 -0 -0 -0 -0 -0 -0 0 0 0 0 0 0 -0 0 -0 0 0 0 0 0 0 0 0 0 0
0 0 0 0 0 0 0 0 0 0 0 0 0 0 0 0 0 0 -0 -0 -0 -0 -0 -0 -0 -0 -0 -0 -0 0 0 0 0 -0 0 0 0 0 0 0 0 0 0 0
0 0 0 0 0 0 0 0 0 0 0 0 0 0 0 0 0 0 -0 -0 -0 -0 -0 -0 -0 -0 -0 -0 -0 -0 0 0 -0 0 0 0 0 0 0 0 0 0 0 0
0 0 0 0 0 0 0 0 0 0 0 0 0 0 0 0 0 0 0 0 0 -0 -0 -0 -0 -0 -0 -0 -0 -0 0 0 0 0 0 0 0 0 0 0 0 0 0 0
0 0 0 0 0 0 0 0 0 0 0 0 0 0 0 0 0 0 0 -0 -0 0 0 0 -0 0 -0 -0 0 0 0 0 0 0 0 0 0 0 0 0 0 0 0 0
0 0 0 0 0 0 0 0 0 0 0 0 0 0 0 0 0 0 -0 -0 0 0 0 0 0 0 0 0 0 0 0 0 0 0 0 -0 0 0 0 0 0 0 0 0
0 0 0 0 0 0 0 0 0 0 0 0 0 0 0 0 0 0 -0 -0 0 0 0 0 -0 0 0 0 0 0 0 0 0 0 0 0 0 0 0 0 0 0 0 0
0 0 0 0 0 0 0 0 0 0 0 0 -0 0 0 0 0 0 0 -0 -0 0 -0 0 0 0 0 0 0 0 0 0 0 0 0 0 0 0 0 0 0 0 0 0
0 0 0 0 0 0 0 0 0 0 0 0 0 0 0 0 0 0 0 -0 0 -0 0 0 0 0 0 0 0 0 0 0 0 0 0 0 0 0 0 0 0 0 0 0
0 0 0 0 0 0 0 0 0 0 0 0 0 0 0 0 0 0 0 0 0 0 0 0 0 0 0 0 0 0 0 0 0 0 0 0 0 0 0 0 0 0 0 0
0 0 0 0 0 0 0 0 0 0 0 0 0 0 0 0 0 0 0 0 0 0 -0 0 -0 -0 0 0 -0 -0 0 0 0 0 0 0 0 0 0 0 0 0 0 0
0 0 0 0 0 0 0 0 0 0 0 0 0 0 0 0 0 0 0 0 0 0 0 0 -0 -0 0 0 -0 -0 0 0 0 0 0 0 0 0 0 0 0 0 0 0
0 0 0 0 0 0 0 0 0 0 0 0 0 0 0 0 0 0 0 0 0 0 0 0 0 0 -0 0 0 -0 -0 -0 -0 0 0 0 0 0 0 0 0 0 0 0
0 0 0 0 0 0 0 0 0 0 0 0 0 0 0 0 0 0 0 0 0 0 0 0 0 -0 0 -0 -0 -0 0 -0 0 0 0 0 0 0 0 0 0 0 0 0
0 0 0 0 0 0 0 0 0 0 0 0 0 0 0 0 0 0 0 0 0 0 0 0 -0 -0 -0 -0 -0 0 0 0 0 0 0 0 0 0 0 0 0 0 0 0
0 0 0 0 0 0 0 0 0 0 0 0 0 0 0 0 0 0 0 0 0 0 0 0 0 0 0 -0 0 -0 -0 0 0 0 0 0 0 0 0 0 0 0 0 0
0 0 0 0 0 0 0 0 0 0 0 0 0 0 0 0 0 0 0 0 0 0 0 0 0 0 0 -0 0 0 0 -0 -0 0 0 0 0 0 0 0 0 0 0 0
0 0 0 0 0 0 0 0 0 0 0 0 0 0 -0 0 0 0 0 0 0 0 0 0 0 0 0 0 0 -0 -0 0 0 0 0 0 0 0 0 0 0 0 0 0
0 0 0 0 0 0 0 0 0 0 0 0 0 0 0 0 0 0 0 0 0 -0 0 0 0 0 0 0 -0 -0 0 0 0 0 -0 0 0 0 0 0 0 0 0 0
0 0 0 0 0 0 0 0 0 0 0 0 0 0 0 0 0 0 0 0 0 0 0 0 0 0 0 0 -0 -0 0 -0 -0 0 0 0 0 0 0 0 0 0 0 0
0 0 0 0 0 0 0 0 0 0 0 0 0 0 0 0 0 0 0 0 0 0 0 0 -0 0 0 0 -0 -0 0 -0 -0 0 -0 0 0 0 0 0 0 0 0 0
0 0 0 0 0 0 0 0 0 0 0 0 0 0 0 0 0 0 0 0 0 0 0 -0 0 0 0 0 0 0 -0 -0 0 0 0 -0 0 0 0 0 0 0 0 0
0 0 0 0 0 0 0 0 0 0 0 0 0 0 0 0 0 0 0 0 0 0 0 0 0 0 -0 0 0 0 0 0 -0 -0 -0 0 0 -0 0 0 0 0 0 0
Wind_Speed_500mb
48 55 60 59 53 51 32 13 6 10 12 9 8 14 33 40 42 35 36 22 32 34 31 26 21 18 10 8 20 19 24 13 30 46 57 62 63 58 61 35 49 35 23 7
51 56 60 59 46 39 32 21 8 3 8 8 15 29 36 31 31 32 33 21 27 34 32 19 17 16 17 14 12 9 13 22 27 12 31 60 61 65 53 57 36 38 21 11
53 58 60 57 43 29 16 18 7 4 6 14 16 27 30 29 18 36 32 37 12 18 30 22 15 17 3 18 27 31 16 24 37 12 21 45 60 68 60 55 33 36 35 27
53 57 58 54 40 21 15 10 12 11 10 18 21 29 33 33 23 18 40 22 21 27 33 34 19 17 20 9 13 10 8 35 45 10 42 54 55 61 54 61 44 33 40 23
49 56 56 48 35 20 12 16 14 22 38 19 23 21 27 29 37 19 25 27 39 31 31 32 31 24 18 13 4 11 11 23 39 19 38 54 39 58 50 54 41 38 27 33
46 55 56 44 30 20 10 12 14 11 26 16 12 18 28 40 39 22 29 32 35 31 30 40 50 49 40 33 29 22 18 19 7 12 36 48 32 46 57 44 50 34 23 19
42 48 55 47 24 11 12 15 16 11 17 22 18 31 35 33 35 34 46 28 26 31 50 50 49 49 48 39 33 29 20 27 7 8 27 20 23 24 38 42 41 37 24 26
47 40 52 48 28 11 10 22 10 7 15 39 27 29 32 40 39 30 33 33 30 41 35 21 18 18 27 34 35 32 25 10 7 6 19 30 7 11 7 38 23 23 14 11
53 39 48 48 35 17 15 18 24 14 16 11 41 30 38 26 27 26 32 40 42 21 6 11 19 6 6 3 13 20 13 7 4 12 14 9 14 17 14 4 23 17 12 12
53 42 47 49 42 21 18 21 24 16 19 36 29 30 21 28 21 14 34 45 26 9 6 5 7 9 12 0 5 11 7 5 17 18 17 15 23 25 3 21 13 10 15 14
48 48 48 51 47 28 20 18 27 25 20 58 29 21 33 37 28 9 33 26 9 10 11 7 8 7 8 8 5 9 5 4 10 10 7 8 41 10 6 12 14 17 15 18
53 50 51 48 52 35 22 23 27 27 28 49 49 44 35 31 34 30 8 17 35 12 6 5 7 5 6 11 5 5 1 8 7 9 3 25 21 33 33 29 19 20 19 18
56 56 49 49 56 38 23 23 24 29 23 43 21 16 7 14 19 29 8 8 9 9 7 6 4 7 4 6 8 5 9 16 7 4 12 18 28 33 32 23 26 23 21 20
56 59 52 56 55 39 22 25 17 21 15 9 11 11 12 5 20 15 24 31 21 21 19 10 7 6 4 9 6 6 10 13 15 3 15 17 2 25 27 21 25 27 25 23
54 60 58 57 46 35 26 23 24 24 14 12 30 28 9 9 24 16 17 18 20 15 9 9 6 9 7 5 6 10 8 7 6 5 9 12 24 33 20 23 27 26 28 27
55 58 62 54 42 28 10 10 13 22 18 8 8 17 7 5 8 11 13 15 15 15 17 12 8 5 15 6 6 18 21 21 19 10 23 26 28 14 19 26 25 26 26 25
54 57 59 46 22 13 12 9 7 14 12 6 11 8 8 8 8 10 10 10 13 12 11 8 13 11 12 9 9 34 32 31 25 18 22 25 14 25 23 22 23 23 24 21
53 57 49 27 10 10 10 19 15 8 9 7 6 8 6 10 10 4 8 9 8 7 7 12 12 10 13 6 25 30 26 31 23 26 26 24 26 23 18 18 23 23 22 23
50 49 23 4 3 8 8 17 19 15 12 7 10 6 5 7 6 15 9 7 5 1 3 3 7 6 5 9 31 24 18 17 24 27 24 26 29 27 21 18 23 25 24 26
37 19 9 9 4 17 19 7 5 8 11 13 12 10 6 10 6 7 9 11 6 2 4 2 3 5 11 4 15 14 19 25 32 38 35 32 28 27 32 29 23 25 27 28
20 13 8 9 15 8 8 9 11 14 9 17 19 8 12 2 6 3 7 6 7 4 4 4 4 4 9 16 15 18 20 23 14 29 28 25 26 27 29 29 26 28 29 30
29 26 30 16 3 11 10 9 8 9 8 17 13 4 10 4 3 3 5 4 7 5 5 3 3 6 10 16 23 27 26 31 32 22 27 30 29 27 29 30 29 28 29 29
17 7 7 7 10 5 12 11 8 6 14 13 9 6 2 4 4 3 1 3 8 19 6 2 6 18 8 11 14 19 25 31 33 33 34 32 33 34 31 33 33 36 33 32
9 7 8 11 11 12 12 13 8 6 4 12 8 8 9 8 4 4 4 7 1 5 4 5 8 10 10 7 11 20 25 27 29 36 35 34 39 36 38 36 37 37 36 35
10 10 11 15 25 19 13 18 9 9 11 10 11 13 8 7 5 5 4 6 7 8 5 1 3 7 8 8 8 11 17 24 29 32 32 32 34 41 45 48 39 37 40 43
12 17 14 23 15 20 23 22 21 18 15 9 10 9 5 9 7 7 10 6 8 5 5 13 5 5 9 12 5 8 12 15 20 26 28 28 30 33 39 44 44 41 46 45
12 17 32 42 31 25 24 16 17 19 22 13 7 7 8 0 7 6 7 8 5 13 12 2 5 10 9 5 3 5 8 10 13 17 21 26 28 27 29 37 40 41 45 47
Wind_Direction_500mb
360 355 351 351 348 348 5 308 283 355 345 312 254 292 335 309 301 304 305 322 296 305 312 295 289 278 308 213 296 293 261 289 257 225 218 215 215 214 204 220 213 234 254 158
360 357 355 353 357 354 348 309 283 265 358 339 324 324 312 303 328 317 310 303 313 316 311 297 286 340 37 333 317 315 3 237 253 257 249 196 220 209 205 219 222 210 227 153
358 358 356 354 0 359 358 310 296 130 308 330 305 324 310 319 329 323 315 305 317 297 311 310 275 335 107 325 275 273 294 260 256 247 243 197 213 203 206 201 217 197 225 120
358 359 356 354 2 20 0 327 25 350 300 327 323 301 288 302 335 296 306 301 296 289 316 314 339 325 302 328 256 249 262 247 242 271 294 301 210 206 198 194 206 201 197 193
354 358 358 353 1 18 356 335 342 330 299 292 300 308 305 329 330 325 311 323 318 311 298 311 309 304 306 276 328 245 262 273 253 277 274 281 209 213 202 196 199 222 183 193
346 353 356 358 360 19 333 324 323 298 294 282 303 301 321 311 312 313 295 301 307 312 315 319 306 299 287 272 288 289 296 280 229 237 257 260 212 202 196 200 195 213 192 196
343 346 351 355 350 345 301 303 317 299 295 315 319 306 309 308 314 293 300 306 299 311 314 304 284 255 257 259 256 253 261 288 253 265 248 217 201 204 198 192 194 203 223 195
343 341 348 347 348 327 301 294 280 278 287 317 299 329 314 318 314 315 315 326 323 310 312 304 301 242 224 233 234 234 230 261 271 251 229 105 81 150 173 186 151 29 319 260
343 339 347 347 338 316 298 285 279 262 295 292 326 321 314 311 323 314 329 331 324 320 306 302 282 289 157 295 283 209 196 204 235 259 226 169 318 15 21 359 104 43 8 23
342 332 340 347 342 311 284 284 284 253 273 287 313 307 306 303 305 291 302 334 317 342 325 283 302 306 339 27 219 188 194 253 243 259 244 116 336 322 289 206 81 34 35 39
333 332 324 332 339 319 274 278 276 259 271 295 289 298 291 290 287 287 317 318 10 306 360 334 340 324 330 319 25 351 296 223 213 228 235 103 343 50 11 60 72 43 32 31
336 328 327 321 329 325 269 281 262 266 259 275 293 286 277 281 283 275 276 283 314 344 355 321 305 297 302 318 82 58 229 358 317 40 46 295 35 55 42 21 43 28 18 13
335 332 327 322 323 317 266 253 276 293 287 312 271 287 294 273 271 274 226 294 328 301 348 297 283 288 295 326 44 332 11 8 330 311 9 324 54 40 26 18 2 7 11 9
331 331 328 328 321 309 280 250 263 251 287 276 317 294 341 278 346 324 287 272 290 297 291 252 255 262 331 354 341 58 1 346 338 17 6 310 258 7 357 5 358 356 3 359
330 329 325 330 320 305 285 257 234 240 267 303 306 305 261 277 291 260 306 278 270 279 275 238 300 302 347 185 308 51 54 358 357 356 359 309 308 322 347 346 346 342 346 347
327 327 324 326 314 299 259 252 230 207 220 279 300 324 249 286 263 278 230 234 242 253 291 317 321 327 329 298 95 38 16 356 352 309 311 304 304 302 333 332 333 335 331 338
324 324 324 325 312 256 221 356 104 208 225 247 286 291 237 329 276 296 255 234 248 255 281 297 318 310 304 322 37 356 355 349 338 331 338 319 318 322 320 316 323 329 330 337
325 323 322 321 303 212 239 253 258 222 264 249 273 283 0 349 329 304 295 283 274 275 292 322 343 360 1 33 345 338 342 339 336 343 333 307 303 305 324 326 320 329 330 336
326 321 324 332 160 247 226 265 267 246 232 259 232 263 332 305 351 301 255 236 262 83 31 310 324 57 36 290 314 328 333 337 334 338 329 334 333 329 331 331 324 320 327 326
335 343 280 180 204 260 292 288 212 212 218 230 258 273 278 302 1 306 354 282 289 244 95 156 352 62 355 16 5 9 357 10 14 360 356 347 342 338 330 328 326 318 317 316
346 318 280 291 288 295 250 238 218 183 229 212 237 297 310 58 319 270 288 291 304 281 117 292 31 66 23 8 357 12 353 4 11 18 3 354 346 345 344 337 334 329 322 320
300 286 282 287 211 217 231 223 206 222 242 175 253 49 317 18 282 290 283 274 307 289 1 293 194 98 63 23 15 17 12 15 14 3 2 8 3 357 357 353 349 342 329 317
295 273 259 227 215 247 225 212 222 237 180 219 218 237 44 140 238 200 338 266 245 326 271 241 108 116 106 48 19 13 20 19 9 15 21 14 1 4 7 1 354 346 343 338
262 249 248 220 202 229 220 246 267 55 278 252 269 285 159 207 213 198 225 234 232 262 257 204 94 53 64 71 21 8 10 14 11 12 16 8 13 11 11 12 8 2 356 349
263 225 245 226 234 269 247 250 261 241 254 265 246 244 222 189 222 212 249 233 243 222 229 205 0 352 336 338 358 19 7 6 9 11 16 8 10 13 14 12 8 11 10 5
240 236 256 254 262 254 233 230 248 248 219 236 260 263 236 216 193 180 219 239 229 239 221 275 350 7 321 318 303 7 16 9 6 4 9 5 6 5 9 17 20 16 14 13
232 241 242 257 271 268 286 279 238 232 224 231 207 232 239 44 227 202 181 217 238 227 239 286 349 298 302 318 297 349 2 2 9 10 6 9 6 356 3 8 9 15 16 15
Wind_Speed_850mb
48 55 60 59 53 51 32 13 6 10 12 9 8 14 33 40 42 35 36 22 32 34 31 26 21 18 10 8 20 19 24 13 30 46 57 62 63 58 61 35 49 35 23 7
51 56 60 59 46 39 32 21 8 3 8 8 15 29 36 31 31 32 33 21 27 34 32 19 17 16 17 14 12 9 13 22 27 12 31 60 61 65 53 57 36 38 21 11
53 58 60 57 43 29 16 18 7 4 6 14 16 27 30 29 18 36 32 37 12 18 30 22 15 17 3 18 27 31 16 24 37 12 21 45 60 68 60 55 33 36 35 27
53 57 58 54 40 21 15 10 12 11 10 18 21 29 33 33 23 18 40 22 21 27 33 34 19 17 20 9 13 10 8 35 45 10 42 54 55 61 54 61 44 33 40 23
49 56 56 48 35 20 12 16 14 22 38 19 23 21 27 29 37 19 25 27 39 31 31 32 31 24 18 13 4 11 11 23 39 19 38 54 39 58 50 54 41 38 27 33
46 55 56 44 30 20 10 12 14 11 26 16 12 18 28 40 39 22 29 32 35 31 30 40 50 49 40 33 29 22 18 19 7 12 36 48 32 46 57 44 50 34 23 19
42 48 55 47 24 11 12 15 16 11 17 22 18 31 35 33 35 34 46 28 26 31 50 50 49 49 48 39 33 29 20 27 7 8 27 20 23 24 38 42 41 37 24 26
47 40 52 48 28 11 10 22 10 7 15 39 27 29 32 40 39 30 33 33 30 41 35 21 18 18 27 34 35 32 25 10 7 6 19 30 7 11 7 38 23 23 14 11
53 39 48 48 35 17 15 18 24 14 16 11 41 30 38 26 27 26 32 40 42 21 6 11 19 6 6 3 13 20 13 7 4 12 14 9 14 17 14 4 23 17 12 12
53 42 47 49 42 21 18 21 24 16 19 36 29 30 21 28 21 14 34 45 26 9 6 5 7 9 12 0 5 11 7 5 17 18 17 15 23 25 3 21 13 10 15 14
48 48 48 51 47 28 20 18 27 25 20 58 29 21 33 37 28 9 33 26 9 10 11 7 8 7 8 8 5 9 5 4 10 10 7 8 41 10 6 12 14 17 15 18
53 50 51 48 52 35 22 23 27 27 28 49 49 44 35 31 34 30 8 17 35 12 6 5 7 5 6 11 5 5 1 8 7 9 3 25 21 33 33 29 19 20 19 18
56 56 49 49 56 38 23 23 24 29 23 43 21 16 7 14 19 29 8 8 9 9 7 6 4 7 4 6 8 5 9 16 7 4 12 18 28 33 32 23 26 23 21 20
56 59 52 56 55 39 22 25 17 21 15 9 11 11 12 5 20 15 24 31 21 21 19 10 7 6 4 9 6 6 10 13 15 3 15 17 2 25 27 21 25 27 25 23
54 60 58 57 46 35 26 23 24 24 14 12 30 28 9 9 24 16 17 18 20 15 9 9 6 9 7 5 6 10 8 7 6 5 9 12 24 33 20 23 27 26 28 27
55 58 62 54 42 28 10 10 13 22 18 8 8 17 7 5 8 11 13 15 15 15 17 12 8 5 15 6 6 18 21 21 19 10 23 26 28 14 19 26 25 26 26 25
54 57 59 46 22 13 12 9 7 14 12 6 11 8 8 8 8 10 10 10 13 12 11 8 13 11 12 9 9 34 32 31 25 18 22 25 14 25 23 22 23 23 24 21
53 57 49 27 10 10 10 19 15 8 9 7 6 8 6 10 10 4 8 9 8 7 7 12 12 10 13 6 25 30 26 31 23 26 26 24 26 23 18 18 23 23 22 23
50 49 23 4 3 8 8 17 19 15 12 7 10 6 5 7 6 15 9 7 5 1 3 3 7 6 5 9 31 24 18 17 24 27 24 26 29 27 21 18 23 25 24 26
37 19 9 9 4 17 19 7 5 8 11 13 12 10 6 10 6 7 9 11 6 2 4 2 3 5 11 4 15 14 19 25 32 38 35 32 28 27 32 29 23 25 27 28
20 13 8 9 15 8 8 9 11 14 9 17 19 8 12 2 6 3 7 6 7 4 4 4 4 4 9 16 15 18 20 23 14 29 28 25 26 27 29 29 26 28 29 30
29 26 30 16 3 11 10 9 8 9 8 17 13 4 10 4 3 3 5 4 7 5 5 3 3 6 10 16 23 27 26 31 32 22 27 30 29 27 29 30 29 28 29 29
17 7 7 7 10 5 12 11 8 6 14 13 9 6 2 4 4 3 1 3 8 19 6 2 6 18 8 11 14 19 25 31 33 33 34 32 33 34 31 33 33 36 33 32
9 7 8 11 11 12 12 13 8 6 4 12 8 8 9 8 4 4 4 7 1 5 4 5 8 10 10 7 11 20 25 27 29 36 35 34 39 36 38 36 37 37 36 35
10 10 11 15 25 19 13 18 9 9 11 10 11 13 8 7 5 5 4 6 7 8 5 1 3 7 8 8 8 11 17 24 29 32 32 32 34 41 45 48 39 37 40 43
12 17 14 23 15 20 23 22 21 18 15 9 10 9 5 9 7 7 10 6 8 5 5 13 5 5 9 12 5 8 12 15 20 26 28 28 30 33 39 44 44 41 46 45
12 17 32 42 31 25 24 16 17 19 22 13 7 7 8 0 7 6 7 8 5 13 12 2 5 10 9 5 3 5 8 10 13 17 21 26 28 27 29 37 40 41 45 47
Wind_Direction_850mb
360 355 351 351 348 348 5 308 283 355 345 312 254 292 335 309 301 304 305 322 296 305 312 295 289 278 308 213 296 293 261 289 257 225 218 215 215 214 204 220 213 234 254 158
360 357 355 353 357 354 348 309 283 265 358 339 324 324 312 303 328 317 310 303 313 316 311 297 286 340 37 333 317 315 3 237 253 257 249 196 220 209 205 219 222 210 227 153
358 358 356 354 0 359 358 310 296 130 308 330 305 324 310 319 329 323 315 305 317 297 311 310 275 335 107 325 275 273 294 260 256 247 243 197 213 203 206 201 217 197 225 120
358 359 356 354 2 20 0 327 25 350 300 327 323 301 288 302 335 296 306 301 296 289 316 314 339 325 302 328 256 249 262 247 242 271 294 301 210 206 198 194 206 201 197 193
354 358 358 353 1 18 356 335 342 330 299 292 300 308 305 329 330 325 311 323 318 311 298 311 309 304 306 276 328 245 262 273 253 277 274 281 209 213 202 196 199 222 183 193
346 353 356 358 360 19 333 324 323 298 294 282 303 301 321 311 312 313 295 301 307 312 315 319 306 299 287 272 288 289 296 280 229 237 257 260 212 202 196 200 195 213 192 196
343 346 351 355 350 345 301 303 317 299 295 315 319 306 309 308 314 293 300 306 299 311 314 304 284 255 257 259 256 253 261 288 253 265 248 217 201 204 198 192 194 203 223 195
343 341 348 347 348 327 301 294 280 278 287 317 299 329 314 318 314 315 315 326 323 310 312 304 301 242 224 233 234 234 230 261 271 251 229 105 81 150 173 186 151 29 319 260
343 339 347 347 338 316 298 285 279 262 295 292 326 321 314 311 323 314 329 331 324 320 306 302 282 289 157 295 283 209 196 204 235 259 226 169 318 15 21 359 104 43 8 23
342 332 340 347 342 311 284 284 284 253 273 287 313 307 306 303 305 291 302 334 317 342 325 283 302 306 339 27 219 188 194 253 243 259 244 116 336 322 289 206 81 34 35 39
333 332 324 332 339 319 274 278 276 259 271 295 289 298 291 290 287 287 317 318 10 306 360 334 340 324 330 319 25 351 296 223 213 228 235 103 343 50 11 60 72 43 32 31
336 328 327 321 329 325 269 281 262 266 259 275 293 286 277 281 283 275 276 283 314 344 355 321 305 297 302 318 82 58 229 358 317 40 46 295 35 55 42 21 43 28 18 13
335 332 327 322 323 317 266 253 276 293 287 312 271 287 294 273 271 274 226 294 328 301 348 297 283 288 295 326 44 332 11 8 330 311 9 324 54 40 26 18 2 7 11 9
331 331 328 328 321 309 280 250 263 251 287 276 317 294 341 278 346 324 287 272 290 297 291 252 255 262 331 354 341 58 1 346 338 17 6 310 258 7 357 5 358 356 3 359
330 329 325 330 320 305 285 257 234 240 267 303 306 305 261 277 291 260 306 278 270 279 275 238 300 302 347 185 308 51 54 358 357 356 359 309 308 322 347 346 346 342 346 347
327 327 324 326 314 299 259 252 230 207 220 279 300 324 249 286 263 278 230 234 242 253 291 317 321 327 329 298 95 38 16 356 352 309 311 304 304 302 333 332 333 335 331 338
324 324 324 325 312 256 221 356 104 208 225 247 286 291 237 329 276 296 255 234 248 255 281 297 318 310 304 322 37 356 355 349 338 331 338 319 318 322 320 316 323 329 330 337
325 323 322 321 303 212 239 253 258 222 264 249 273 283 0 349 329 304 295 283 274 275 292 322 343 360 1 33 345 338 342 339 336 343 333 307 303 305 324 326 320 329 330 336
326 321 324 332 160 247 226 265 267 246 232 259 232 263 332 305 351 301 255 236 262 83 31 310 324 57 36 290 314 328 333 337 334 338 329 334 333 329 331 331 324 320 327 326
335 343 280 180 204 260 292 288 212 212 218 230 258 273 278 302 1 306 354 282 289 244 95 156 352 62 355 16 5 9 357 10 14 360 356 347 342 338 330 328 326 318 317 316
346 318 280 291 288 295 250 238 218 183 229 212 237 297 310 58 319 270 288 291 304 281 117 292 31 66 23 8 357 12 353 4 11 18 3 354 346 345 344 337 334 329 322 320
300 286 282 287 211 217 231 223 206 222 242 175 253 49 317 18 282 290 283 274 307 289 1 293 194 98 63 23 15 17 12 15 14 3 2 8 3 357 357 353 349 342 329 317
295 273 259 227 215 247 225 212 222 237 180 219 218 237 44 140 238 200 338 266 245 326 271 241 108 116 106 48 19 13 20 19 9 15 21 14 1 4 7 1 354 346 343 338
262 249 248 220 202 229 220 246 267 55 278 252 269 285 159 207 213 198 225 234 232 262 257 204 94 53 64 71 21 8 10 14 11 12 16 8 13 11 11 12 8 2 356 349
263 225 245 226 234 269 247 250 261 241 254 265 246 244 222 189 222 212 249 233 243 222 229 205 0 352 336 338 358 19 7 6 9 11 16 8 10 13 14 12 8 11 10 5
240 236 256 254 262 254 233 230 248 248 219 236 260 263 236 216 193 180 219 239 229 239 221 275 350 7 321 318 303 7 16 9 6 4 9 5 6 5 9 17 20 16 14 13
232 241 242 257 271 268 286 279 238 232 224 231 207 232 239 44 227 202 181 217 238 227 239 286 349 298 302 318 297 349 2 2 9 10 6 9 6 356 3 8 9 15 16 15